Regional Weather Roundup
Issued by NWS Wakefield, VA

Home | Current Version | Previous Version | Text Only | Print | Product List | Glossary Off
Versions: 1 2 3 4 5 6 7 8 9 10 11 12 13 14 15 16 17 18 19 20 21 22 23 24 25 26 27 28 29 30 31 32 33 34 35 36 37 38 39 40 41 42 43 44 45 46 47 48 49 50

703
ASUS41 KAKQ 151415
RWRAKQ

REGIONAL WEATHER ROUNDUP
NATIONAL WEATHER SERVICE WAKEFIELD VA
900 AM EST MON JAN 15 2018

Note: "fair" indicates few or no clouds below 12,000 feet with no
significant weather and/or obstructions to visibility. * = Denotes
station may not report precipitation (e.g., rain,snow,etc.),
thunder or fog.

VAZ042-051-052>054-056-151500-
NORTHERN VIRGINIA

CITY           SKY/WX    TMP DP  RH WIND       PRES   REMARKS
WASH NATIONAL  FAIR      21   9  59 N8        30.63R
DULLES         FAIR      17   8  67 N7        30.61R
FORT BELVOIR   FAIR      20   8  58 CALM      30.62R
QUANTICO       FAIR      21   9  59 N6        30.64R
FREDERICKSBRG* FAIR      18  11  72 N5        30.62R
STAFFORD*      FAIR      18  11  73 N3        30.66R
WARRENTON      FAIR      19   6  59 N5        30.61R
CULPEPER*      FAIR      17   7  65 N6        30.62R
MANASSAS*      FAIR      16   8  71 N7        30.63R
LEESBURG*      FAIR      18  10  73 N7        30.62R
WINCHESTER     FAIR      14   7  73 CALM      30.57S
FRONT ROYAL*   FAIR      12   9  85 MISG      30.57R
LURAY*         FAIR      12  10  92 CALM      30.56R
$$

VAZ048-049-060>072-079>083-151500-
CENTRAL AND SOUTH CENTRAL VIRGINIA

CITY           SKY/WX    TMP DP  RH WIND       PRES   REMARKS
RICHMOND       PTSUNNY   21  11  65 N12       30.58R WCI   9
CHESTERFIELD*  NOT AVBL
PETERSBURG*    CLOUDY    21   9  58 N6        30.58S
HANOVER        CLOUDY    20   9  62 NW6       30.60R
TAPPAHANNOCK*  CLOUDY    22  15  74 NW5       30.59R
QUINTON*       CLOUDY    20  11  68 N6        30.57S
CHARLOTTSVILLE FAIR      18  10  71 CALM      30.57R
GORDONSVILLE*  FAIR      18   7  60 MISG      30.59R
ORANGE*        FAIR      18   7  62 CALM      30.59R
LOUISA*        FAIR      16   5  63 N6        30.62S
BUMPASS*       FAIR      17   8  69 N3        30.60R
FARMVILLE*     FAIR      19   9  64 N5        30.58R
CREWE*         CLOUDY    18   8  64 N6        30.57S
FORT PICKETT*  CLOUDY    19   8  62 N6        30.56S
CHASE CITY*    FAIR      17   6  62 N5        30.57R
CLARKSVILLE*   PTSUNNY   18   9  68 N7        30.57R
SOUTH HILL*    CLOUDY    20   9  63 N8        30.61R
LAWRENCEVILLE* CLOUDY    21   8  57 N8        30.56R
EMPORIA*       CLOUDY    23  10  58 NW9       30.58R
$$

VAZ088>098-151500-
SOUTHEAST VIRGINIA

CITY           SKY/WX    TMP DP  RH WIND       PRES   REMARKS
NORFOLK        CLOUDY    30  24  78 N13       30.52R WCI  20
VIRGINIA BEACH CLOUDY    30  22  72 N10       30.51R WCI  21
NORFOLK NAVAL  CLOUDY    30  23  75 N14       30.55R WCI  19
WEST POINT*    CLOUDY    25  15  67 NW5       30.59R
SALUDA*        CLOUDY    26  20  79 N8        30.55S
NEWPORT NEWS   CLOUDY    28  18  66 VRB6      30.55R
LANGLEY AFB    MIX PCPN  29  23  77 N9        30.54R
FORT EUSTIS    CLOUDY    27  16  64 N6        30.52S
WILLIAMSBURG*  CLOUDY    28  18  64 CALM      30.56R
HR EXEC AP*    CLOUDY    29  22  75 VRB3      30.54R
FRANKLIN*      CLOUDY    25  14  62 NW7       30.56R
US460-WAKEFLD  CLOUDY    24  14  65 N7        30.56R
$$

VAZ020-022-025-037-045-151500-
WEST CENTRAL AND SOUTHWEST VIRGINIA

CITY           SKY/WX    TMP DP  RH WIND       PRES   REMARKS
STAUNTON*      FAIR      11   6  81 CALM      30.56R
WAYNESBORO*    FAIR      12   4  72 CALM      30.51R
HOT SPRINGS VA CLOUDY    16  -2  46 W9        30.29R
LYNCHBURG      FAIR      18   5  57 NE6       30.54R
DANVILLE       FAIR      19   6  57 NE9       30.58R
SOUTH BOSTON*  FAIR      19   5  56 N5        30.60R
MARTINSVILLE   FAIR      17   6  63 CALM      30.60R
ROANOKE        FAIR      16  12  84 W5        30.55R
BLACKSBURG     CLOUDY    15   4  61 CALM      30.47R
DUBLIN*        CLOUDY    16   8  71 CALM      30.46R
MARION*        CLOUDY    17   7  64 E5        30.42R
HILLSVILLE*    CLOUDY    14   6  71 CALM      30.37S
RICHLANDS*     CLOUDY    21  13  71 CALM      30.34S
WISE*          CLOUDY    23  16  74 S5        30.33F
ABINGDON*      CLOUDY    23  13  66 E10       30.39F WCI  12
$$

MDZ021>025-VAZ099-100-151500-
SOUTHERN MARYLAND AND THE DELMARVA PENINSULA

CITY           SKY/WX    TMP DP  RH WIND       PRES   REMARKS
PATUXENT RIVER CLOUDY    24  19  81 NE12      30.58R WCI  13
BAY BRIDGE APT CLOUDY    23  12  63 MISG      30.61R
LEONARDTOWN    CLOUDY    25  19  80 NE3       30.60R
DOVER          CLOUDY    23  19  84 N10       30.58S WCI  12
GEORGETOWN     CLOUDY    27  20  75 N10G21    30.56R WCI  17
EASTON         PTSUNNY   23  14  68 NE7       30.61R
CAMBRIDGE      CLOUDY    23  16  74 N8        30.57S
SALISBURY      CLOUDY    27  22  81 NE8       30.54S
OCEAN CITY     CLOUDY    29  26  89 N14       30.53R WCI  18
WALLOPS ISLAND CLOUDY    28  23  81 N8        30.53R
ACCOMACK*      CLOUDY    28  22  81 N5        30.52R
$$

NCZ012>017-030>032-151500-
NORTH CENTRAL AND EASTERN NORTH CAROLINA

CITY           SKY/WX    TMP DP  RH WIND       PRES   REMARKS
ROANOKE RAPIDS FAIR      23  14  68 CALM      30.55S
RALEIGH        FAIR      20   8  60 N7        30.56R
ELIZABETH CITY CLOUDY    31  29  92 N16       30.49R WCI  20
AHOSKIE*       CLOUDY    24  12  61 NW5       30.54S
EDENTON*       CLOUDY    31  23  72 N12       30.51S WCI  21
CURRITUCK*     CLOUDY    30  27  88 NW10G18   30.49S WCI  21
KILL DEVIL HLS CLOUDY    37  37  99 N12G25    30.43R FOG
MANTEO         CLOUDY    33  32  94 N14G22    30.46R WCI  23
CAPE HATTERAS  NOT AVBL
TARBORO*       NOT AVBL
GOLDSBORO      FAIR      25  13  59 NW9       30.51R
WASHINGTON     FAIR      27  17  65 N8        30.52R
GREENVILLE     FAIR      27  16  63 N6        30.52S
NEW BERN       CLOUDY    28  19  69 N9        30.50R
WILMINGTON     FAIR      29  18  63 NW10      30.50R WCI  20
$$

VAZ048-151500-
ELSEWHERE

CITY           SKY/WX    TMP DP  RH WIND       PRES   REMARKS
HARRISBURG PA  CLOUDY    15   6  67 CALM      30.62S
BALTIMORE      PTSUNNY   19  10  68 VRB5      30.61R
ANNAPOLIS      CLOUDY    23  16  74 N6        30.61R
ANDREWS AFB    PTSUNNY   19  10  69 NE9       30.59R
PHILADELPHIA   CLOUDY    20   8  60 NE14      30.63S WCI   7
HENDERSON NC   PTSUNNY   17   6  63 N6        30.56R
GREENSBORO     FAIR      19   6  57 N6        30.54R
ROCKY MOUNT    FAIR      24  13  62 N9        30.54S
$$

VAZ100-151500-
MARINE

STATION/POSITION TIME  TEMP    WIND        PRES    WAVE   SWELL
                       AIR SEA DIR/SP/G            HT/PER HT/PER
                 (UTC) (F)     (DEG/KT/KT) (MB)    (FT/S) (FT/S)
BRANDYWINE LGT   1348   25      40/ 21/ 23 1035.1R
CAPE MAY NJ      1348   28 33   40/  5/ 12 1034.1R
LEWES DE         1348   27 32   10/ 11/ 14 1034.9R
15NM E FENWICK I 1350   40 43   40/ 21/ 25 1032.7R   7/ 6   2/ 9
OCEAN-CITY-INLET 1348   29 35   20/ 15/ 21 1034.1R
WACHAPREAGUE VA  1348   28 33  360/  6/ 10 1033.3R
THOMAS POINT MD  1400   22 32   20/ 14/ 17   N/A
GOOSES REEF MD   1400   23 33   20/ 12/ 14 1036.5    2/ 3
COVE POINT MD    1348   22      30/ 12/ 15 1036.2R
SOLOMONS ISLAND  1348   23 34   10/  7/ 10 1035.3R
BISHOPS HEAD MD  1348   22 30   20/  8/ 13 1035.1R
PINEY POINT MD   1342           40/  5/  6   N/A
POTOMAC MD       1400   25 34   80/ 14/ 19 1034.5    1/ 2
CAMBRIDGE MD     1336   22 31              1036.0R
LEWISETTA VA     1348   24 31   40/  8/ 12 1035.4R
RAPPAHANNOCK LGT 1348           20/ 19/ 20 1034.2R
STINGRAY PT      1400   27 34   40/ 16/ 19 1035.9    2/ 3
YORK RVR RNG VA  1348   28      20/ 12/ 14 1034.6R
YORKTOWN VA      1348   27 35  340/  7/  8 1034.1R
DOMINION TERM VA 1348   29     120/  1/  6 1034.4R
KIPTOPEKE VA     1348      35   10/  7/  9   N/A
CAPE HENRY VA    1348          340/ 12/ 14   N/A
WILLOUBY STN VA  1348           20/ 13/ 16 1034.0R
S CRANEY ISL VA  1348   29      20/ 12/ 16 1033.9R
CAPE HENRY BUOY  1400      43                N/A     6/ 6
1ST LANDING BUOY 1400   29 38   10/ 14/ 16 1033.7    3/ 4
CAPE CHARLES BUO 1351      40                N/A     6/ 7   2/11
64NM E OF VA BCH 1350   53 66   40/ 17/ 21 1029.3R   8/ 6   3/ 9
DUCK PIER NC     1348   35 39  340/ 23/ 26 1030.0R
44100 DUCK FRF   1315      44                N/A     8/ 7   2/11
44056 DUCK FRF   1400      41                N/A     7/ 7   2/11
OREGON INLET NC  1342   40 40  320/ 14/ 22 1030.1R
HATTERAS NC      1348   36 42  340/ 25/ 27 1029.7R
DIAMOND SHLS NC  1400   45 69  340/ 29/ 35 1028.6
CAPE LOOKOUT NC  1400          350/  3/  4 1030.7F
$$




USA.gov is the U.S. government's official web portal to all federal, state and local government web resources and services.